Location: ????????
(37.6846°N, 24.0673°E)
Time: 03:57:44
(UTC+00:00)

ERS-2 - Pass Details

Date: 14 July 2020
Orbit: 494 x 498 km, 98.5° (Epoch: 10 August)

Event Time Altitude Azimuth Distance (km) Brightness Sun altitude
Exits shadow 02:26:28 - 188° (S) 2,303 5.1 -8.7°
Reaches altitude 10° 02:28:02 10° 196° (SSW) 1,687 4.3 -8.5°
Maximum altitude 02:31:20 33° 261° (W) 859 2.8 -7.9°
Drops below altitude 10° 02:34:39 10° 326° (NNW) 1,697 4.8 -7.4°
Sets 02:36:52 0° 337° (NNW) 2,584 5.9 -7.0°
